Weather History for Goldsboro, NC

Change the Weather History Date:

Friday, September 7, 2012

  Actual Average Record
Temperature  
Mean Temperature 78 °F -  
Max Temperature 86 °F 82 °F 95 °F (1998)
Min Temperature 70 °F 65 °F 59 °F (2001)
Cooling Degree Days 12    
Growing Degree Days 28 (Base 50)    
Moisture  
Dew Point 68 °F    
Average Humidity 83    
Maximum Humidity 94    
Minimum Humidity 59    
Precipitation  
Precipitation 0.00 in - - ()
Sea Level Pressure  
Sea Level Pressure 29.92 in    
Wind  
Wind Speed 2 mph (NE)    
Max Wind Speed 8 mph    
Max Gust Speed -    
Visibility 6 miles    
Events      
Averages and records for this station are not official NWS values.
T = Trace of Precipitation, MM = Missing Value Source: NWS Daily Summary

Daily Weather History Graph

Daily Weather History Graph

Search for Another Location

Airport:

Trip Planner

Search our weather history database for the weather conditions in past years. The results will help you decide how hot, cold, wet, or windy it might be!

Date:

Astronomy

Sep. 07, 2012 Rise Set
Actual Time 6:49 AM EDT 7:29 PM EDT
Civil Twilight 6:23 AM EDT 7:55 PM EDT
Nautical Twilight 5:52 AM EDT 8:25 PM EDT
Astronomical Twilight 5:21 AM EDT 8:56 PM EDT
Moon 11:39 PM EDT (9/7) 1:23 PM EDT (9/7)
Length of Visible Light 13h 32m
Length of Day
12h 40m
Waning Gibbous, 58% of the Moon is Illuminated
Sep 7
Waning Gibbous
Sep 8
Last Quarter
Sep 15
New
Sep 22
First Quarter
Sep 29
Full

Hourly Weather History & Observations

Time (EDT) Temp. Heat Index Dew Point Humidity Pressure Visibility Wind Dir Wind Speed Gust Speed Precip Events Conditions
12:55 AM 72.3 °F - 66.6 °F 82% 29.93 in 10.0 mi West 3.5 mph - N/A   Clear
1:55 AM 71.6 °F - 66.4 °F 84% 29.91 in 10.0 mi Calm Calm - N/A   Clear
2:05 AM 71.6 °F - 66.2 °F 83% 29.91 in 10.0 mi Calm Calm - N/A   Partly Cloudy
2:15 AM 71.6 °F - 66.2 °F 83% 29.91 in 10.0 mi WNW 3.5 mph - N/A   Mostly Cloudy
2:55 AM 71.2 °F - 66.2 °F 84% 29.90 in 9.0 mi Calm Calm - N/A   Scattered Clouds
3:19 AM 71.6 °F - 66.2 °F 83% 29.90 in 1.2 mi Calm Calm - N/A   Haze
3:20 AM 71.6 °F - 66.2 °F 83% 29.90 in 1.0 mi Calm Calm - N/A   Haze
3:21 AM 71.6 °F - 66.2 °F 83% 29.90 in 1.0 mi Calm Calm - N/A   Haze
3:32 AM 71.6 °F - 66.2 °F 83% 29.90 in 0.5 mi Calm Calm - N/A   Haze
3:34 AM 71.6 °F - 66.2 °F 83% 29.90 in 0.5 mi Calm Calm - N/A   Haze
3:44 AM 71.6 °F - 66.2 °F 83% 29.90 in 0.5 mi Calm Calm - N/A   Haze
3:45 AM 71.6 °F - 66.2 °F 83% 29.90 in 0.2 mi Calm Calm - N/A   Haze
3:55 AM 70.9 °F - 66.4 °F 86% 29.90 in 0.2 mi Calm Calm - N/A   Haze
3:58 AM 71.6 °F - 66.2 °F 83% 29.90 in 0.2 mi Calm Calm - N/A   Haze
4:00 AM 71.6 °F - 66.2 °F 83% 29.90 in 0.5 mi Calm Calm - N/A   Haze
4:06 AM 71.6 °F - 66.2 °F 83% 29.90 in 0.8 mi Calm Calm - N/A   Haze
4:12 AM 71.6 °F - 66.2 °F 83% 29.90 in 1.5 mi Calm Calm - N/A   Haze
4:14 AM 71.6 °F - 66.2 °F 83% 29.90 in 1.8 mi Calm Calm - N/A   Haze
4:18 AM 71.6 °F - 66.2 °F 83% 29.90 in 3.0 mi Calm Calm - N/A   Haze
4:55 AM 71.1 °F - 67.3 °F 88% 29.90 in 7.0 mi North 4.6 mph - N/A   Overcast
5:13 AM 71.6 °F - 66.2 °F 83% 29.91 in 1.5 mi North 5.8 mph - N/A   Overcast
5:14 AM 71.6 °F - 66.2 °F 83% 29.91 in 1.5 mi North 5.8 mph - N/A   Overcast
5:18 AM 71.6 °F - 66.2 °F 83% 29.90 in 1.0 mi North 3.5 mph - N/A   Mist
5:26 AM 71.6 °F - 68.0 °F 88% 29.91 in 1.2 mi North 4.6 mph - N/A   Overcast
5:27 AM 71.6 °F - 68.0 °F 88% 29.91 in 1.2 mi North 3.5 mph - N/A   Overcast
5:34 AM 71.6 °F - 68.0 °F 88% 29.91 in 1.8 mi Calm Calm - N/A   Overcast
5:45 AM 71.6 °F - 68.0 °F 88% 29.91 in 1.8 mi NNE 3.5 mph - N/A   Overcast
5:46 AM 71.6 °F - 68.0 °F 88% 29.91 in 2.0 mi NE 3.5 mph - N/A   Overcast
5:55 AM 71.1 °F - 67.1 °F 87% 29.91 in 2.5 mi Calm Calm - N/A   Overcast
6:22 AM 71.6 °F - 68.0 °F 88% 29.92 in 7.0 mi NE 3.5 mph - N/A   Overcast
6:55 AM 71.6 °F - 68.2 °F 89% 29.93 in 5.0 mi Calm Calm - N/A   Overcast
7:18 AM 71.6 °F - 68.0 °F 88% 29.94 in 3.0 mi ENE 3.5 mph - N/A   Overcast
7:26 AM 71.6 °F - 69.8 °F 94% 29.95 in 2.5 mi ENE 3.5 mph - N/A   Overcast
7:39 AM 71.6 °F - 69.8 °F 94% 29.95 in 3.0 mi ENE 3.5 mph - N/A   Overcast
7:55 AM 72.0 °F - 69.3 °F 91% 29.95 in 4.0 mi Calm Calm - N/A   Overcast
8:15 AM 71.6 °F - 69.8 °F 94% 29.95 in 6.0 mi East 3.5 mph - N/A   Overcast
8:55 AM 73.0 °F - 70.9 °F 93% 29.95 in 5.0 mi East 3.5 mph - N/A   Overcast
9:20 AM 73.4 °F - 71.6 °F 94% 29.96 in 9.0 mi NE 5.8 mph - N/A   Overcast
9:29 AM 73.4 °F - 71.6 °F 94% 29.96 in 10.0 mi ENE 5.8 mph - N/A   Overcast
9:44 AM 75.2 °F - 73.4 °F 94% 29.96 in 10.0 mi ENE 6.9 mph - N/A   Overcast
9:55 AM 74.7 °F - 72.5 °F 93% 29.97 in 10.0 mi NE 8.1 mph - N/A   Mostly Cloudy
9:58 AM 75.2 °F - 73.4 °F 94% 29.97 in 10.0 mi NE 6.9 mph - N/A   Mostly Cloudy
10:55 AM 77.4 °F - 72.7 °F 85% 29.97 in 10.0 mi East 3.5 mph - N/A   Mostly Cloudy
10:58 AM 77.0 °F - 71.6 °F 83% 29.97 in 10.0 mi Calm Calm - N/A   Mostly Cloudy
11:55 AM 79.5 °F - 73.0 °F 80% 29.96 in 10.0 mi Calm Calm - N/A   Mostly Cloudy
12:55 PM 80.8 °F 85.4 °F 72.9 °F 77% 29.95 in 10.0 mi Calm Calm - N/A   Overcast
1:55 PM 82.8 °F 88.4 °F 72.9 °F 72% 29.93 in 10.0 mi Variable 3.5 mph - N/A   Mostly Cloudy
2:55 PM 82.8 °F 87.9 °F 72.0 °F 70% 29.91 in 10.0 mi ESE 3.5 mph - N/A   Mostly Cloudy
3:55 PM 85.6 °F 92.2 °F 72.9 °F 65% 29.89 in 10.0 mi Calm Calm - N/A   Scattered Clouds
4:55 PM 83.8 °F 87.8 °F 69.6 °F 62% 29.88 in 10.0 mi WSW 3.5 mph - N/A   Scattered Clouds
5:55 PM 84.6 °F 88.5 °F 69.4 °F 60% 29.88 in 10.0 mi SSE 4.6 mph - N/A   Scattered Clouds
6:55 PM 82.4 °F 84.8 °F 66.6 °F 59% 29.88 in 10.0 mi Calm Calm - N/A   Clear
7:55 PM 78.1 °F - 66.6 °F 68% 29.88 in 10.0 mi Calm Calm - N/A   Clear
8:55 PM 77.4 °F - 67.8 °F 72% 29.89 in 10.0 mi ESE 4.6 mph - N/A   Mostly Cloudy
9:55 PM 76.3 °F - 67.3 °F 74% 29.88 in 10.0 mi SSE 3.5 mph - N/A   Clear
10:55 PM 75.0 °F - 66.6 °F 75% 29.86 in 10.0 mi SSE 5.8 mph - N/A   Clear
11:55 PM 74.1 °F - 65.5 °F 74% 29.86 in 10.0 mi Calm Calm - N/A   Clear